sat.trackr.live / text

‹ back to catalog

STARLINK-3590

NORAD 51867 · 2022-022R

PAYLOAD ACTIVE UNKNOWN

§ Identity

Operator
Country
US
Launch date
2022-03-03
Launch site
AFETR
Launch vehicle
Mass (kg)
RCS (m²)

Purposes: comms

External: N2YO · Heavens-Above · Gunter

§ Orbital elements

Epoch: 2026-09-19T11:13:52.376448Z

Period
93.79 min
Inclination
53.1624°
Eccentricity
0.0001632
Mean motion
15.35397881 rev/d
Perigee alt
458.6 km
Apogee alt
460.9 km
Semi-major
6,837.9 km
B*
2.8477e-5
RAAN
208.2569°
Arg perigee
73.9882°
Mean anomaly
286.1301°
Rev number
25,251

§ Raw data

STARLINK-35901 51867U 22022R   26262.46796732  .00000613  00000+0  28477-4 0  99982 51867  53.1624 208.2569 0001632  73.9882 286.1301 15.35397881252517

JSON: /api/v1/satellites/51867 · /tle

For live sub-satellite position, see the globe view (requires WebGL).

§ Visibility from observer

Set your observer location to see the next 7 days of passes ≥ 10°. The values pass through the URL so the page stays shareable.

No JS? Fill the form by hand. The geolocation button needs JavaScript.